Regional Weather Roundup
Issued by NWS

Home | Current Version | Previous Version | Text Only | Print | Product List | Glossary On
Versions: 1 2 3 4 5 6 7 8 9 10 11 12 13 14 15 16 17 18 19 20 21 22 23 24 25 26 27 28 29 30 31 32 33 34 35 36 37 38 39 40 41 42 43 44 45 46 47 48 49 50
664
ASUS43 KLOT 241808
RWRIL

ILLINOIS REGIONAL WEATHER ROUNDUP
NATIONAL WEATHER SERVICE CHICAGO/ROMEOVILLE IL
100 PM CDT MON APR 24 2017

NOTE: "FAIR" INDICATES FEW OR NO CLOUDS BELOW 12,000 FEET WITH NO
SIGNIFICANT WEATHER AND/OR OBSTRUCTIONS TO VISIBILITY.

* THESE STATIONS ARE NOT UNDER NWS QUALITY CONTROL. THEY ALSO MAY NOT
  REPORT WEATHER SUCH AS PRECIPITATION OR FOG.

ILZ001-002-007-009-015-016-024-241900-
NORTHWEST ILLINOIS

CITY           SKY/WX    TMP DP  RH WIND       PRES   REMARKS
MOLINE         SUNNY     73  34  23 SE12      29.87F
6HR MIN TEMP:  40; 6HR MAX TEMP:  74;

STERLING*      SUNNY     72  29  20 S12       29.90F
SAVANNA*       SUNNY     73  31  21 S16       29.89F
$$

ILZ003-004-008-010-011-017-018-241900-
NORTH CENTRAL ILLINOIS

CITY           SKY/WX    TMP DP  RH WIND       PRES   REMARKS
ROCKFORD       CLOUDY    72  33  24 S13       29.92F
6HR MIN TEMP:  43; 6HR MAX TEMP:  72;

FREEPORT*      SUNNY     69  34  27 SE15G22   29.93F
ROCHELLE*      SUNNY     72  29  20 SE16G23   29.92F
DE KALB*       SUNNY     70  31  23 SE13      29.93F
PERU*          SUNNY     71  26  18 SE12      29.91F
$$

ILZ005-006-012>014-019>023-241900-
NORTHEAST ILLINOIS

CITY           SKY/WX    TMP DP  RH WIND       PRES   REMARKS
CHICAGO-OHARE  PTSUNNY   70  26  19 SE10      29.94F
6HR MIN TEMP:  42; 6HR MAX TEMP:  70;

CHICAGO-MIDWAY PTSUNNY   70  36  28 E7        29.94F
6HR MIN TEMP:  45; 6HR MAX TEMP:  70;

AURORA         SUNNY     72  29  20 SE15G21   29.93F
6HR MIN TEMP:  41; 6HR MAX TEMP:  72;

LANSING*       SUNNY     70  40  33 SE12      29.94F
WAUKEGAN       SUNNY     63  31  30 SE10      29.96F
6HR MIN TEMP:  37; 6HR MAX TEMP:  64;

DUPAGE AIRPORT SUNNY     71  32  23 E10       29.93F
6HR MIN TEMP:  38; 6HR MAX TEMP:  71;

WHEELING       SUNNY     67  27  22 SE12G21   29.96F
6HR MIN TEMP:  40; 6HR MAX TEMP:  69;

MORRIS*        MOSUNNY   72  26  18 SE9       29.92F
NORTHERLY ISL    N/A     53  45  74 N3          N/A
$$

LMZ740>746-241900-
SOUTHERN LAKE MICHIGAN

STATION/POSITION SKY/WX   TEMP    WIND        PRES    VSBY  WAVE
                          AIR SEA DIR/SP/G                  HT/PER
                          (F)     (DEG/KT/KT) (MB)    (MI)  (FT/S)
SOUTHERN BUOY              44 41   90/  4/  4 1016.6          1/ 5
HARRISON CRIB              47      30/  4/  4   N/A
BURNHAM HARBOR             55      30/  4/  7   N/A
CALUMET HARBOR             56      20/  6/  8 1014.1F
BURNS HARBOR               51        CALM     1014.9F
MICHIGAN CITY              67     140/  5/  7   N/A
ST. JOSEPH                 63 52  150/  6/  8 1014.6F         2/ 2
$$

ILZ025>027-034>036-040-047-049-050-058-095>099-241900-
WEST-CENTRAL ILLINOIS

CITY           SKY/WX    TMP DP  RH WIND       PRES   REMARKS
QUINCY         SUNNY     72  27  18 SE12      29.87F
GALESBURG*     SUNNY     71  30  21 SE12G20   29.88F
MACOMB*        SUNNY     74  25  16 SE15      29.90F
JACKSONVILLE*  SUNNY     72  31  21 S8        29.89F
PITTSFIELD*    SUNNY     73  32  21 SE8       29.90F
$$

ILZ028>032-037-038-041>044-048-051>054-059>061-241900-
CENTRAL ILLINOIS

CITY           SKY/WX    TMP DP  RH WIND       PRES   REMARKS
PONTIAC        SUNNY     73  30  20 SE8       29.93F
BLOOMINGTON    SUNNY     73  34  23 SE10G24   29.92F
DECATUR        SUNNY     73  33  23 VRB6      29.91F
PEORIA         CLOUDY    73  30  20 SE14G20   29.90F
6HR MIN TEMP:  48; 6HR MAX TEMP:  73;

LACON*         MOSUNNY   73  32  22 S8        29.90F
LINCOLN*       SUNNY     74  33  21 SE6       29.90F
SPRINGFIELD    SUNNY     75  31  19 VRB6      29.90F
6HR MIN TEMP:  45; 6HR MAX TEMP:  76;

TAYLORVILLE    MOSUNNY   72  29  19 NE7       29.90F
6HR MIN TEMP:  47; 6HR MAX TEMP:  73;

$$

ILZ033-039-045-046-055>057-062-063-241900-
EAST-CENTRAL ILLINOIS

CITY           SKY/WX    TMP DP  RH WIND       PRES   REMARKS
CHAMPAIGN      SUNNY     74  30  19 NE8       29.90F
RANTOUL*       SUNNY     75  31  20 E9G22     29.91F
MATTOON        SUNNY     73  31  21 E9        29.89F
PARIS*         SUNNY     75  32  21 E13G18    29.90F
$$

ILZ079-100>102-241900-
SOUTHWEST ILLINOIS

CITY           SKY/WX    TMP DP  RH WIND       PRES   REMARKS
BELLEVILLE     SUNNY     73  36  26 CALM      29.89F
CAHOKIA*       SUNNY     73  34  23 S6        29.89F
SPARTA*        SUNNY     69  40  35 CALM      29.91F
$$

ILZ064>066-069>071-074>076-080>082-084>086-088>090-092>094-241900-
SOUTH-CENTRAL ILLINOIS

CITY           SKY/WX    TMP DP  RH WIND       PRES   REMARKS
CARBONDALE     CLOUDY    70  45  40 CALM      29.89F
6HR MIN TEMP:  42; 6HR MAX TEMP:  71;

CAIRO*         SUNNY     71  48  43 N3        29.88F
EFFINGHAM*     SUNNY     74  32  21 NE8       29.91F
MARION         MOSUNNY   72  41  33 N7        29.89F
MT. VERNON     SUNNY     72  37  28 NE8       29.88F
CENTRALIA*     SUNNY     73  33  23 E5        29.89F
SALEM*         MOSUNNY   74  29  19 E5        29.89F
$$

ILZ067-068-072-073-078-083-087-091-241900-
SOUTHEAST ILLINOIS

CITY           SKY/WX    TMP DP  RH WIND       PRES   REMARKS
LAWRENCEVILLE  SUNNY     76  33  21 NE10      29.87F
FLORA*         SUNNY     74  33  22 NE9       29.89F
FAIRFIELD*     SUNNY     72  33  23 N6        29.87F
HARRISBURG*    SUNNY     71  47  42 E7        29.89F
ROBINSON*      SUNNY     74  31  20 NE14      29.89F
CARMI*         SUNNY     70  40  33 N5        29.87F
$$

ABBREVIATIONS USED IN REMARKS
   TC - TEMPERATURE IN CELSIUS
  WCI - WIND CHILL INDEX
   HX - HEAT INDEX
  VSB - VISIBILITY
$$





USA.gov is the U.S. government's official web portal to all federal, state and local government web resources and services.